KD5OH Weather Reports


time (UTC)temp
C
wind
direction
speed
KPH
gust
KPH
rain 1hr
cm
rain 24hr
cm
rain mn
cm
humidity
%
barometer
mb
20260904154653 23 166 3.2 8.0 0.00 0.00 0.00 54 1020.3
20260904153127 23 161 3.2 9.7 0.00 0.00 0.00 54 1020.3
20260904151640 23 165 4.8 9.7 0.00 0.00 0.00 53 1020.2
20260904150136 23 151 4.8 11.3 0.00 0.00 0.00 54 1020.2
20260904144627 23 139 4.8 11.3 0.00 0.00 0.00 54 1020.2
20260904143159 23 135 4.8 9.7 0.00 0.00 0.00 54 1020.2
20260904141632 23 142 4.8 9.7 0.00 0.00 0.00 54 1019.8
20260904140143 23 137 4.8 12.9 0.00 0.00 0.00 55 1019.9
20260904134638 23 140 9.7 17.7 0.00 0.00 0.00 56 1019.8
20260904133130 22 142 9.7 12.9 0.00 0.00 0.00 57 1019.7
20260904131643 22 131 4.8 11.3 0.00 0.00 0.00 59 1019.5
20260904130138 21 118 4.8 9.7 0.00 0.00 0.00 60 1019.3
20260904124629 21 129 4.8 11.3 0.00 0.00 0.00 60 1019.2
20260904123124 21 128 6.4 11.3 0.00 0.00 0.00 60 1019.1
20260904121635 21 128 8.0 16.1 0.00 0.00 0.00 59 1019.0
20260904120131 22 117 6.4 11.3 0.00 0.00 0.00 59 1018.9
20260904114624 22 129 4.8 12.9 0.00 0.00 0.00 59 1018.8
20260904113136 22 128 4.8 9.7 0.00 0.00 0.00 59 1018.6
20260904111651 22 96 1.6 4.8 0.00 0.00 0.00 59 1018.5
20260904110141 22 157 3.2 8.0 0.00 0.00 0.00 58 1018.4
20260904104637 22 168 0.0 3.2 0.00 0.00 0.00 57 1018.4
20260904103128 23 153 3.2 12.9 0.00 0.00 0.00 56 1018.2
20260904101641 23 140 6.4 14.5 0.00 0.00 0.00 55 1018.0
20260904100135 23 142 6.4 12.9 0.00 0.00 0.00 55 1018.1
20260904094626 23 132 9.7 17.7 0.00 0.00 0.00 53 1018.0
20260904093121 23 144 14.5 22.5 0.00 0.00 0.00 52 1018.1
20260904091632 24 137 9.7 19.3 0.00 0.00 0.00 51 1018.3
20260904090127 24 121 17.7 27.4 0.00 0.00 0.00 49 1018.3
20260904084639 25 144 14.5 24.1 0.00 0.00 0.00 47 1018.3
20260904083151 25 177 17.7 27.4 0.00 0.00 0.00 46 1018.4
20260904081626 25 132 14.5 24.1 0.00 0.00 0.00 45 1018.3
20260904080137 26 162 14.5 29.0 0.00 0.00 0.00 43 1018.2
20260904074632 26 140 19.3 33.8 0.00 0.00 0.00 42 1018.0
20260904073123 26 128 16.1 27.4 0.00 0.00 0.00 41 1017.9
20260904071641 26 121 14.5 30.6 0.00 0.00 0.00 41 1017.9
20260904070132 26 123 16.1 33.8 0.00 0.00 0.00 41 1017.9
20260904064622 26 143 22.5 32.2 0.00 0.00 0.00 40 1017.9
20260904063139 27 131 12.9 25.7 0.00 0.00 0.00 38 1017.8
20260904061650 27 123 12.9 20.9 0.00 0.00 0.00 37 1017.6
20260904060126 27 145 16.1 32.2 0.00 0.00 0.00 36 1017.5
20260904054638 27 123 17.7 32.2 0.00 0.00 0.00 36 1017.4
20260904053133 27 119 16.1 27.4 0.00 0.00 0.00 38 1017.1
20260904051624 26 184 1.6 4.8 0.00 0.00 0.00 40 1017.1
20260904050158 26 228 0.0 3.2 0.00 0.00 0.00 39 1016.7
20260904044634 26 121 0.0 3.2 0.00 0.00 0.00 38 1016.7
20260904043147 25 237 0.0 0.0 0.00 0.00 0.00 39 1016.7
20260904041621 26 148 0.0 1.6 0.00 0.00 0.00 37 1016.5
20260904040134 27 80 0.0 1.6 0.00 0.00 0.00 33 1016.5
20260904034625 28 80 0.0 1.6 0.00 0.00 0.00 32 1016.4
20260904033140 28 80 0.0 4.8 0.00 0.00 0.00 32 1016.2
20260904031653 28 92 4.8 19.3 0.00 0.00 0.00 31 1016.2
20260904030127 28 109 16.1 27.4 0.00 0.00 0.00 31 1016.1
20260904024638 29 95 20.9 30.6 0.00 0.00 0.00 29 1015.9
20260904023152 28 92 17.7 27.4 0.00 0.00 0.00 31 1015.6
20260904021647 30 139 4.8 20.9 0.00 0.00 0.00 30 1015.2
20260904020139 30 116 17.7 25.7 0.00 0.00 0.00 31 1015.2
20260904014634 30 258 0.0 0.0 0.00 0.00 0.00 26 1014.7
20260904013126 31 258 0.0 0.0 0.00 0.00 0.00 27 1014.8
20260904011622 31 278 3.2 6.4 0.00 0.00 0.00 26 1014.7
20260904010135 32 144 0.0 1.6 0.00 0.00 0.00 25 1014.6
20260904004626 32 143 0.0 1.6 0.00 0.00 0.00 23 1014.6
20260904003123 33 143 1.6 8.0 0.00 0.00 0.00 22 1014.4
20260904001656 33 220 0.0 6.4 0.00 0.00 0.00 21 1014.6
20260904000129 33 305 1.6 17.7 0.00 0.00 0.00 23 1014.6
20260903234640 34 139 14.5 24.1 0.00 0.00 0.00 21 1014.6
20260903233132 34 94 0.0 6.4 0.00 0.00 0.00 20 1014.6
20260903231627 35 119 4.8 17.7 0.00 0.00 0.00 20 1014.6
20260903230140 35 100 8.0 12.9 0.00 0.00 0.00 20 1014.8
20260903224635 34 90 3.2 9.7 0.00 0.00 0.00 20 1014.7
20260903223126 35 224 9.7 14.5 0.00 0.00 0.00 20 1015.0
20260903221702 35 231 3.2 12.9 0.00 0.00 0.00 20 1015.1
20260903220133 35 304 8.0 19.3 0.00 0.00 0.00 20 1015.2
20260903214624 35 258 9.7 17.7 0.00 0.00 0.00 20 1015.3
20260903213201 35 306 8.0 17.7 0.00 0.00 0.00 20 1015.5
20260903211631 35 294 3.2 12.9 0.00 0.00 0.00 21 1015.9
20260903210126 35 258 3.2 24.1 0.00 0.00 0.00 20 1016.1
20260903204640 35 231 1.6 6.4 0.00 0.00 0.00 19 1016.2
20260903203135 35 277 8.0 19.3 0.00 0.00 0.00 20 1016.4
20260903201646 34 158 6.4 17.7 0.00 0.00 0.00 21 1016.4
20260903200138 35 256 6.4 12.9 0.00 0.00 0.00 20 1016.5
20260903194633 34 314 4.8 11.3 0.00 0.00 0.00 22 1016.7
20260903193145 34 293 4.8 9.7 0.00 0.00 0.00 22 1016.8
20260903191641 33 263 6.4 14.5 0.00 0.00 0.00 22 1017.2
20260903190133 33 327 8.0 22.5 0.00 0.00 0.00 23 1017.4
20260903184645 33 73 3.2 8.0 0.00 0.00 0.00 23 1017.8
20260903183140 33 277 4.8 14.5 0.00 0.00 0.00 23 1018.2
20260903181632 33 120 1.6 9.7 0.00 0.00 0.00 24 1018.5
20260903180128 32 66 0.0 9.7 0.00 0.00 0.00 26 1018.8
20260903174639 32 268 1.6 8.0 0.00 0.00 0.00 26 1019.0
20260903173150 31 112 0.0 6.4 0.00 0.00 0.00 27 1019.1
20260903171626 31 139 3.2 6.4 0.00 0.00 0.00 29 1019.1
20260903170139 31 293 0.0 4.8 0.00 0.00 0.00 31 1019.1
20260903164634 30 73 3.2 6.4 0.00 0.00 0.00 32 1019.2
20260903163126 29 278 1.6 4.8 0.00 0.00 0.00 34 1019.2
20260903161621 28 140 4.8 9.7 0.00 0.00 0.00 36 1019.3
20260903160155 28 225 4.8 11.3 0.00 0.00 0.00 37 1019.4